Weather in Beloye Ozero

Russia / Ulyanovsk Oblast     53°01′17″N   46°58′47″E
temp.,
°C
wind,
m/s
gust,
m/s
humid.,
%
clouds,
%
prec.,
mm/h
press.,
hPa
HPBL,
m
24 january, mon
mon2401:00−9ene3794100 0.4 1032242
04:00−12ene2695100 0.4 1033122
07:00−14ene3893100 0.0 1034162
10:00−13ene3109599 0.0 1034195
13:00−9e4888100 0.0 1033249
16:00−10ene389363 0.0 1034256
19:00−14e3998100 0.0 1034157
22:00−16e269974 0.0 1034100
25 january, tue
tue2501:00−16e269871 0.0 103482
04:00−17ese259733 0.0 103374
07:00−19e229915 0.0 103233
10:00−16ese259628 0.0 103092
13:00−9se368687 0.0 1028234
16:00−10sse3892100 0.0 1027236
19:00−11sse289567 0.0 1026172
22:00−15sse259981 0.0 102589
26 january, wed
wed2601:00−18sse1110090 0.0 102415
04:00−16sse129987 0.1 102339
07:00−15s1198100 0.1 102126
10:00−12ssw2396100 0.1 102175
13:00−8sw2392100 0.1 1019236
16:00−7sw2393100 0.1 1019292
19:00−12wsw2198100 0.0 102020
22:00−14wsw2299100 0.0 102123
27 january, thu
thu2701:00−14sw2399100 0.0 102137
04:00−14sw1199100 0.1 102127
07:00−14ssw119980 0.0 102119
10:00−11sw2397100 0.1 102162
13:00−7ssw1291100 0.0 1019258
16:00−6wsw1291100 0.0 1019268
19:00−10sw1198100 0.0 101910
22:00−12sw119881 0.0 101910
28 january, fri
fri2801:00−15sw119972 0.0 10199
04:00−16sw1110093 0.0 10199
07:00−13sw119892 0.1 101822
10:00−12sw229880 0.1 101947
13:00−7wsw349294 0.0 1017295
16:00−7sw259468 0.0 1017254
19:00−15ssw2210092 0.0 101828
22:00−15s2410099 0.0 101854